Theta_e
340 347 347 351 351 348 348 348 349 350 348 346 348 347 347 347 349 346 346 346 345 342 344 344 346 346 346 347 346 345 345 345 343 343 343 343 344 344 344 344 343 343 344
340 349 348 350 350 350 348 349 348 343 342 344 348 342 342 343 346 345 347 347 344 343 343 343 343 344 346 346 345 345 343 343 342 342 342 342 342 341 342 341 341 343 344
343 349 346 349 349 350 349 349 345 344 341 345 341 347 344 343 343 345 344 347 345 343 342 343 344 345 345 345 344 343 343 342 340 340 340 341 341 340 339 338 341 342 344
344 348 347 348 347 348 350 349 345 342 344 344 345 338 342 342 342 346 344 346 344 343 342 343 343 345 344 344 344 343 341 338 338 339 340 340 339 338 339 338 339 342 342
345 345 345 347 345 347 349 349 343 345 343 343 340 335 344 345 341 345 345 346 344 343 343 342 342 343 343 341 342 340 337 337 338 339 339 339 338 338 337 337 336 339 341
340 339 341 346 347 345 347 347 345 343 343 343 342 344 344 345 342 343 344 344 343 342 341 341 342 342 342 339 335 335 335 336 338 338 338 337 337 336 335 334 335 336 339
340 338 341 347 347 347 347 346 346 345 343 339 340 342 342 344 344 341 344 343 342 341 341 341 341 341 342 338 334 333 334 336 337 336 336 336 336 335 333 333 334 335 337
344 336 340 345 346 346 345 345 344 344 343 340 339 341 342 347 344 342 343 342 342 341 341 340 340 338 340 339 334 332 332 334 335 335 335 334 335 334 332 331 331 333 333
341 335 336 340 341 343 343 341 340 341 343 340 337 340 342 344 345 343 342 341 340 340 340 337 334 336 339 340 334 332 332 334 335 334 333 334 334 333 330 330 330 328 332
340 334 336 338 339 344 344 338 336 335 341 343 337 333 341 343 342 342 341 341 339 341 339 337 332 331 338 338 334 332 332 333 333 333 333 333 334 332 331 330 329 331 330
340 337 341 343 341 347 347 343 341 337 336 341 334 341 337 341 342 341 341 340 340 339 338 336 332 329 334 336 335 333 332 332 332 332 332 332 331 331 329 329 330 330 330
341 340 349 349 345 346 349 347 344 341 338 340 334 335 343 340 341 341 341 340 340 338 338 335 335 330 327 333 333 334 332 332 331 331 332 331 329 330 331 330 331 330 331
341 343 345 350 343 340 345 346 344 344 342 341 337 332 339 339 341 340 340 340 338 338 337 335 335 333 325 329 330 333 332 331 330 330 331 328 328 328 331 329 331 329 330
342 343 343 344 342 341 340 343 342 343 343 342 341 335 335 339 339 340 339 338 338 337 336 335 335 333 326 328 330 329 332 331 330 329 330 329 330 330 330 331 329 329 329
343 342 343 343 343 342 340 340 342 340 342 341 341 340 334 336 338 339 338 339 338 338 336 335 335 334 331 332 333 333 331 331 329 329 329 329 329 330 329 330 328 328 328
343 343 343 342 343 342 340 342 342 340 341 341 341 340 337 333 334 338 339 339 338 338 337 336 335 334 334 333 332 329 332 331 329 329 329 328 328 330 329 329 329 328 327
343 344 343 343 343 343 341 342 340 341 342 342 341 340 337 337 339 338 338 338 337 336 336 336 336 336 335 333 331 328 331 330 328 329 329 328 328 328 329 329 328 328 326
341 343 344 344 344 344 342 341 341 341 341 342 340 340 339 339 339 339 338 338 337 337 337 336 336 336 334 332 330 329 330 329 327 329 329 327 328 328 326 327 328 327 326
336 342 344 345 344 343 343 341 340 341 341 341 339 339 339 337 338 337 337 337 337 336 336 335 336 334 331 328 327 328 329 327 327 328 328 328 328 326 326 325 325 326 326
318 335 342 343 344 343 342 340 339 342 340 340 338 336 338 338 336 336 334 335 336 335 334 334 334 331 330 327 326 326 327 326 326 328 327 328 327 326 325 324 323 323 325
314 315 328 341 343 343 342 341 340 340 340 340 340 338 338 338 337 336 334 333 333 334 333 333 332 330 326 325 325 325 325 326 327 326 327 327 326 325 325 324 324 323 324
315 315 315 330 340 342 342 340 339 338 339 340 339 338 338 338 339 337 336 334 333 333 333 332 331 326 325 325 325 324 323 325 325 325 326 326 326 326 325 324 324 322 322
312 314 316 327 337 340 340 339 339 338 337 336 337 337 337 336 337 336 335 334 333 332 331 330 329 328 325 324 325 324 324 323 324 324 325 325 325 326 324 322 323 321 321
311 313 321 328 338 340 340 338 338 336 334 336 336 336 335 334 333 333 332 331 331 330 329 328 328 327 326 325 324 322 321 322 321 324 323 324 324 324 324 323 322 322 321
318 313 321 334 338 339 339 338 337 335 335 334 333 333 333 332 331 330 331 332 329 330 329 327 325 324 325 325 324 322 320 321 320 320 322 322 322 323 323 323 323 322 320
323 321 326 336 337 337 337 336 336 335 334 333 332 332 332 330 329 329 329 330 328 327 325 325 325 324 323 324 325 323 322 320 319 318 318 320 321 322 323 323 321 322 320
Wind_Speed
19 26 22 19 17 16 14 13 11 11 11 11 11 10 10 9 10 11 11 12 12 12 12 12 12 13 13 12 12 13 15 16 16 17 19 20 21 21 23 24 27 28 27
22 26 22 19 17 16 14 12 11 11 11 12 11 8 10 9 8 9 10 12 12 12 12 12 12 13 11 13 14 15 14 15 15 17 19 20 21 21 23 25 26 26 28
26 26 22 19 17 15 13 13 12 11 10 11 10 10 9 8 8 7 8 11 11 11 12 12 12 13 15 14 15 15 14 15 15 17 18 20 21 21 20 22 24 23 27
29 26 22 18 16 14 14 14 15 11 9 9 10 9 10 7 7 7 7 10 10 10 11 12 12 13 14 15 15 15 14 14 14 16 19 20 21 21 21 21 21 23 25
29 26 23 19 17 16 14 14 15 14 11 9 9 9 10 7 6 7 7 9 9 10 11 11 12 13 14 15 15 14 14 14 14 16 18 19 21 20 22 20 20 22 24
27 24 22 19 18 16 13 12 12 14 13 10 8 9 9 9 6 8 7 9 8 9 10 11 11 12 12 13 14 13 14 14 14 17 17 19 21 19 20 19 20 20 22
26 23 21 18 17 17 14 13 11 9 9 9 9 8 9 8 7 8 8 9 7 8 8 10 10 11 11 11 13 13 13 13 13 15 16 19 17 17 17 18 19 20 21
26 26 23 19 18 16 15 14 13 12 10 9 8 8 6 8 8 8 9 9 7 7 7 8 9 9 9 9 10 10 11 11 11 13 15 17 15 16 17 17 18 20 20
23 25 25 24 22 18 16 14 13 13 12 9 8 10 8 8 8 7 9 9 8 7 7 7 8 8 9 9 8 8 10 11 11 13 15 14 14 15 16 16 19 18 20
24 26 25 24 23 22 20 18 16 13 11 9 10 10 10 8 8 9 8 9 9 8 7 8 7 7 8 8 7 7 8 10 10 12 13 13 14 15 15 16 18 19 20
22 24 25 25 24 23 21 18 16 15 14 12 10 10 10 9 9 9 9 9 10 10 8 7 7 7 8 8 7 5 6 8 9 11 11 12 13 14 13 15 17 18 19
25 26 22 22 25 24 23 21 18 16 15 14 12 13 12 10 11 9 9 9 9 9 7 6 4 6 8 8 7 6 5 6 8 10 10 13 12 12 14 15 17 18 20
23 27 27 25 25 25 24 22 21 20 17 15 13 13 13 12 12 11 10 10 9 8 7 7 7 5 7 8 7 5 6 7 7 9 9 10 10 11 13 13 16 16 19
28 31 30 29 27 27 24 23 22 21 20 18 16 14 15 14 13 13 12 12 11 9 8 8 8 6 8 8 5 5 7 8 7 8 11 7 11 11 13 14 16 16 17
24 30 33 31 30 28 25 24 23 23 22 19 17 16 16 15 14 14 12 13 11 9 9 9 10 8 9 5 2 5 8 9 8 9 10 10 9 11 11 13 14 15 16
30 31 32 34 32 28 27 26 25 24 22 19 18 18 16 16 15 14 12 14 14 11 9 8 9 9 7 5 3 4 8 11 10 10 10 10 9 10 10 12 13 15 16
36 35 34 36 34 31 30 27 25 24 22 20 18 18 17 15 14 15 10 9 9 8 7 7 7 7 6 5 4 4 10 12 11 11 12 11 11 10 11 12 13 14 15
35 35 36 37 35 32 32 29 26 22 22 20 18 18 16 15 15 12 11 10 8 8 7 6 6 6 6 5 5 5 10 12 11 11 13 14 13 11 10 11 12 14 14
33 35 37 36 37 36 32 29 25 22 19 19 18 17 16 15 14 12 11 10 10 10 8 7 7 6 5 5 5 6 10 11 10 11 12 14 15 12 11 11 12 13 14
28 34 36 38 36 34 33 28 24 21 20 21 20 18 18 17 16 15 13 12 12 11 9 9 8 5 5 6 7 8 10 10 11 10 11 14 15 14 12 11 13 13 14
20 29 36 35 38 36 34 32 27 27 25 24 23 21 21 21 18 16 14 13 13 12 11 9 8 9 10 10 10 6 5 6 8 9 11 14 14 14 13 13 14 15 12
24 26 31 36 36 40 37 37 31 31 28 25 21 20 22 21 20 17 15 14 14 14 10 9 10 12 6 12 4 4 1 1 2 5 9 9 13 17 18 15 14 13 13
26 28 29 35 40 38 35 35 27 28 21 20 20 20 19 17 16 15 13 13 13 10 9 10 11 11 9 12 7 3 1 2 2 3 5 7 12 15 15 15 17 15 14
22 24 29 32 35 35 41 38 41 31 21 22 29 23 19 17 15 14 13 13 12 12 10 9 9 9 7 13 8 4 2 3 2 1 2 2 15 13 16 19 18 18 17
20 19 25 26 31 34 42 40 38 30 28 25 23 20 19 17 14 12 13 15 13 11 9 9 10 10 10 7 7 5 4 3 3 2 2 2 7 10 14 19 18 19 17
24 9 15 24 27 32 33 38 36 35 29 25 26 24 20 16 13 11 12 15 14 10 7 10 10 10 9 8 8 8 6 3 2 2 1 1 3 5 10 14 17 18 18
Wind_Direction
184 167 174 167 166 161 162 155 148 146 139 133 134 124 114 119 120 108 101 94 89 84 82 80 71 63 57 67 77 67 65 64 61 60 59 58 53 45 43 42 40 35 34
169 165 171 168 166 165 168 160 154 153 143 144 134 122 117 117 119 116 110 96 91 88 87 85 76 64 64 71 79 68 64 63 62 66 63 58 52 44 40 41 39 37 33
165 165 170 168 172 170 164 165 155 158 152 155 147 134 123 137 127 116 115 100 91 89 89 87 76 69 71 74 74 73 68 64 64 67 63 60 52 44 41 41 38 37 36
166 166 171 171 170 166 171 172 160 155 167 160 149 145 143 139 128 122 123 109 101 95 93 95 84 78 80 80 78 75 70 66 64 63 63 60 55 45 42 40 38 37 39
171 172 172 174 168 168 169 160 165 160 173 174 170 151 144 154 145 136 133 120 108 100 97 100 92 84 86 85 80 71 66 66 65 67 66 61 57 47 45 43 40 38 39
174 178 174 174 169 172 173 174 176 176 177 182 173 162 161 158 157 146 147 134 118 106 107 109 99 92 86 88 81 73 71 70 73 73 67 63 58 48 45 43 43 42 40
176 179 175 172 174 173 173 169 169 175 183 187 187 180 172 166 157 150 154 148 130 116 117 117 109 96 96 93 89 83 78 77 77 72 67 58 53 48 45 43 46 44 43
176 177 176 176 179 179 176 175 178 181 188 189 190 181 182 173 170 161 165 156 142 127 126 126 119 108 102 109 95 92 81 78 74 73 63 58 53 47 47 46 48 46 47
181 180 181 181 182 185 183 182 181 182 184 189 189 187 184 195 186 176 171 165 163 144 134 140 130 125 109 119 111 98 87 82 81 71 61 57 54 51 49 50 52 52 48
184 187 189 188 186 188 187 187 183 185 183 199 189 189 195 204 202 193 185 178 172 165 149 135 138 124 122 123 116 106 99 89 83 74 67 64 60 56 52 51 58 54 56
191 196 196 195 194 193 195 194 191 187 181 201 195 195 194 203 207 200 196 194 186 183 161 139 138 138 141 132 125 117 108 99 91 78 72 70 61 64 56 55 57 58 57
200 201 198 203 204 201 201 199 198 195 191 194 198 199 200 203 205 207 206 201 200 196 176 151 159 155 160 154 139 139 132 121 105 90 89 84 71 67 67 62 62 60 61
206 204 203 204 207 209 209 209 204 200 201 202 203 203 202 203 205 204 205 205 208 204 196 170 187 176 165 164 149 149 162 147 126 108 108 107 88 79 74 69 67 63 61
208 210 210 211 208 211 215 216 213 210 209 208 210 206 207 207 209 211 211 209 207 208 204 183 198 184 167 160 151 181 183 168 143 126 131 107 99 96 82 79 70 67 64
215 218 216 214 215 213 213 220 220 219 218 216 213 214 211 211 214 217 215 216 213 213 209 197 197 190 182 195 221 206 193 180 164 147 142 128 113 105 94 89 82 76 71
229 224 220 218 216 214 215 215 220 224 224 222 218 217 216 214 218 225 235 228 227 222 207 197 193 201 201 209 243 214 196 187 177 160 150 148 134 119 110 100 94 88 80
227 229 220 219 216 214 216 218 217 223 228 229 227 219 210 209 218 223 226 215 219 214 200 183 187 194 211 224 238 216 200 193 185 177 165 162 150 141 128 115 106 99 91
226 223 226 217 218 217 216 217 217 220 227 231 223 212 208 207 209 210 212 214 213 200 195 197 198 196 200 207 218 199 195 194 196 187 182 170 167 158 149 129 118 110 105
235 224 224 220 217 220 217 214 216 217 220 218 214 205 200 199 200 199 199 200 199 194 193 199 190 197 187 177 194 198 191 194 200 200 199 184 178 172 161 146 137 125 118
243 232 227 223 223 221 220 216 213 210 211 209 209 209 205 204 201 197 193 192 196 196 189 187 189 171 184 180 177 176 183 192 204 211 212 198 190 178 173 162 150 138 130
245 234 227 219 219 218 212 199 198 203 206 210 213 218 208 202 204 201 198 198 203 205 200 192 171 167 160 167 143 102 126 188 214 238 238 220 189 188 178 169 161 149 143
251 229 223 216 207 210 207 202 196 197 206 212 205 205 211 214 209 205 205 202 201 198 197 195 184 162 149 166 148 135 155 135 287 253 244 227 209 192 177 178 171 161 161
259 228 215 212 207 203 197 193 184 190 192 186 190 194 195 199 200 204 209 204 197 202 205 197 188 178 159 187 177 153 140 186 167 185 199 213 236 193 176 187 187 180 178
292 242 219 208 199 193 200 184 186 179 173 192 194 194 194 195 198 205 208 200 194 195 192 194 195 192 190 192 190 190 130 129 163 154 185 210 221 205 202 197 196 191 188
330 258 221 206 196 190 196 190 182 178 182 188 180 184 188 192 201 199 201 198 199 195 189 192 194 202 208 216 182 167 171 155 129 113 179 169 229 222 219 218 191 199 200
353 311 231 200 193 192 185 188 180 183 177 168 174 181 188 190 193 195 196 198 187 188 194 198 205 209 211 214 212 205 185 171 166 128 98 110 212 207 227 208 213 214 211